GW2214 Weather Reports


time (UTC)temp
F
wind
direction
speed
knots
gust
knots
rain 1hr
in
rain 24hr
in
rain mn
in
humidity
%
barometer
mb
20260901054617 72 163 0.0 0.0 0.00 0.00 0.00 96 1004.8
20260901053127 72 170 0.0 0.0 0.00 0.00 0.00 96 1005.0
20260901051607 72 170 0.0 0.0 0.00 0.00 0.00 96 1005.1
20260901050105 72 170 0.0 0.0 0.00 0.00 0.00 95 1005.3
20260901044603 72 169 0.0 0.0 0.00 0.00 0.00 95 1005.5
20260901043103 72 169 0.0 0.0 0.00 0.00 0.00 95 1005.6
20260901041605 72 169 0.0 0.0 0.00 0.00 0.00 95 1005.7
20260901040109 72 169 0.0 0.0 0.00 0.00 0.00 94 1005.8
20260901034557 72 169 0.0 0.0 0.00 0.03 0.00 94 1005.9
20260901033104 72 169 0.0 0.0 0.00 0.03 0.00 94 1005.6
20260901031609 73 168 0.0 0.0 0.00 0.03 0.00 93 1005.8
20260901030058 73 182 0.0 0.0 0.00 0.03 0.00 92 1005.8
20260901024556 73 164 0.0 0.0 0.00 0.03 0.00 91 1005.7
20260901023053 73 153 0.0 0.0 0.00 0.03 0.00 90 1005.8
20260901021554 72 150 0.0 0.0 0.00 0.03 0.00 88 1005.9
20260901020053 72 134 0.0 0.0 0.00 0.03 0.00 89 1005.8
20260901014551 72 133 0.0 0.0 0.00 0.03 0.00 88 1005.8
20260901013053 72 133 0.0 0.0 0.00 0.03 0.00 88 1005.7
20260901011553 73 133 0.0 0.0 0.00 0.03 0.00 87 1005.8
20260901010050 73 133 0.0 0.0 0.00 0.03 0.00 86 1005.7
20260901004550 74 133 0.0 0.0 0.00 0.03 0.00 85 1005.7
20260901003049 74 133 0.0 0.0 0.00 0.03 0.00 84 1005.5
20260901001553 74 132 0.0 0.0 0.00 0.03 0.00 83 1005.3
20260901000048 75 132 0.0 0.0 0.00 0.03 0.00 83 1005.1
20260831234546 75 132 0.0 0.0 0.00 0.03 0.00 82 1005.3
20260831233045 75 131 0.0 0.0 0.00 0.03 0.00 82 1005.4
20260831231546 76 130 0.0 0.0 0.00 0.03 0.00 81 1005.5
20260831230059 76 130 0.0 0.0 0.00 0.03 0.00 81 1005.8
20260831224542 77 130 0.0 0.0 0.00 0.03 0.00 78 1005.8
20260831223042 77 130 0.0 0.0 0.00 0.03 0.00 78 1005.8
20260831221548 77 26 0.0 0.0 0.00 0.03 0.00 77 1005.8
20260831220039 77 10 0.0 0.0 0.00 0.03 0.00 77 1006.0
20260831214538 77 320 0.0 0.0 0.00 0.03 0.00 79 1006.1
20260831213038 77 320 0.0 0.0 0.00 0.03 0.00 79 1006.3
20260831211539 77 319 0.0 0.0 0.00 0.03 0.00 77 1006.3
20260831210039 78 301 0.0 0.0 0.00 0.03 0.00 75 1006.2
20260831204536 78 301 0.0 0.0 0.00 0.03 0.00 75 1006.3
20260831203041 79 245 0.0 0.0 0.00 0.03 0.00 73 1006.4
20260831201538 78 20 0.0 0.0 0.00 0.03 0.00 74 1006.6
20260831200037 78 4 0.0 0.0 0.00 0.03 0.00 73 1006.5
20260831194605 78 313 0.0 0.0 0.00 0.03 0.00 74 1006.7
20260831193033 78 278 0.0 0.0 0.00 0.03 0.00 73 1006.9
20260831191532 78 306 0.0 0.0 0.00 0.03 0.00 76 1007.1
20260831190033 77 235 0.0 0.0 0.00 0.03 0.00 76 1007.2
20260831184542 78 301 0.0 0.0 0.00 0.03 0.00 74 1007.3
20260831183030 78 264 0.0 0.0 0.00 0.03 0.00 72 1007.2
20260831181532 77 202 0.0 0.0 0.00 0.03 0.00 75 1007.3
20260831180029 77 195 0.0 0.0 0.00 0.03 0.00 77 1007.2
20260831174546 76 194 0.0 0.0 0.00 0.03 0.00 76 1007.4
20260831173029 77 195 0.0 0.0 0.00 0.03 0.00 75 1007.6
20260831171540 78 101 0.0 0.0 0.00 0.03 0.00 73 1007.6
20260831170055 78 99 0.0 0.0 0.00 0.03 0.00 72 1007.7
20260831164532 77 53 0.0 0.0 0.00 0.03 0.00 73 1007.5
20260831163027 77 30 0.0 0.0 0.00 0.03 0.00 74 1007.5
20260831161520 76 332 0.0 0.0 0.00 0.03 0.00 73 1007.7
20260831160028 76 54 0.0 0.0 0.00 0.03 0.00 75 1007.6
20260831154515 74 60 0.0 0.0 0.00 0.03 0.00 77 1007.6
20260831153013 73 5 0.0 0.0 0.00 0.03 0.00 80 1007.5
20260831151511 73 45 0.0 0.0 0.00 0.03 0.00 81 1007.7
20260831150010 73 24 0.0 0.0 0.00 0.03 0.00 79 1007.8
20260831144522 73 25 0.0 0.0 0.00 0.03 0.00 79 1008.2
20260831143009 73 30 0.0 0.0 0.00 0.03 0.00 81 1008.1
20260831141512 73 30 0.0 0.0 0.00 0.03 0.00 80 1007.9
20260831140006 73 38 0.0 0.0 0.00 0.03 0.00 81 1008.0
20260831134505 73 25 0.0 0.0 0.00 0.03 0.00 83 1007.9
20260831133003 72 30 0.0 0.0 0.00 0.03 0.00 85 1007.8
20260831131501 71 29 0.0 0.0 0.00 0.03 0.00 86 1007.8
20260831130100 71 25 0.0 0.0 0.00 0.03 0.00 86 1007.8
20260831124559 71 33 0.0 0.0 0.00 0.03 0.00 86 1007.9
20260831123058 70 39 0.0 0.0 0.00 0.03 0.00 87 1007.9
20260831121556 70 27 0.0 0.0 0.00 0.03 0.00 88 1007.7
20260831120056 70 112 0.0 0.0 0.00 0.03 0.00 89 1007.8
20260831114555 70 16 0.0 0.0 0.00 0.03 0.00 90 1007.8
20260831113059 69 30 0.0 0.0 0.00 0.03 0.00 91 1007.5
20260831111556 69 80 0.0 0.0 0.00 0.03 0.00 92 1007.4
20260831110051 70 134 0.0 0.0 0.00 0.03 0.00 92 1007.2
20260831104551 70 54 0.0 0.0 0.00 0.03 0.00 92 1007.2
20260831103103 70 54 0.0 0.0 0.00 0.03 0.00 91 1007.1
20260831101556 70 54 0.0 0.0 0.00 0.03 0.00 91 1006.9
20260831100046 70 53 0.0 0.0 0.00 0.03 0.00 92 1006.7
20260831094546 70 37 0.0 0.0 0.00 0.03 0.00 92 1006.8
20260831093048 70 37 0.0 0.0 0.00 0.03 0.00 92 1006.7
20260831091544 70 49 0.0 0.0 0.00 0.03 0.00 93 1006.1
20260831090057 70 21 0.0 0.0 0.00 0.03 0.00 94 1006.2
20260831084546 71 30 0.0 0.0 0.00 0.03 0.00 95 1005.9
20260831083041 70 20 0.0 0.0 0.00 0.03 0.00 96 1006.0
20260831081538 70 15 0.0 0.0 0.00 0.03 0.00 97 1006.1
20260831080052 70 6 0.0 0.0 0.00 0.03 0.00 96 1006.1
20260831074535 69 6 0.0 0.0 0.00 0.03 0.00 97 1006.2
20260831073035 69 351 0.0 0.0 0.00 0.03 0.00 97 1006.4
20260831071532 69 351 0.0 0.0 0.00 0.03 0.00 96 1006.4
20260831070034 69 351 0.0 0.0 0.00 0.03 0.00 96 1006.3
20260831064532 68 336 0.0 0.0 0.00 0.03 0.00 96 1006.4
20260831063031 68 278 0.0 0.0 0.00 0.03 0.00 96 1006.3
20260831061529 69 278 0.0 0.0 0.00 0.03 0.00 96 1006.4
20260831060029 69 278 0.0 0.0 0.00 0.03 0.00 96 1006.6